DELEL EDDH-EDDP

Flight info

Callsign DELEL
Flight time N/A
Altitude 11000
Route EDDH AMLUHTG M852 POVEL Z94 KENIG T959 KOJEC DCT GOT1G EDDP
Aircraft C172/L-VGD/A

Departure

Time 2026-05-07 21:24
Airport Hamburg Helmut Schmidt Airport (EDDH)

Arrival

Time N/A
Airport Leipzig/Halle Airport (EDDP)
Time Latitude Longitude Altitude Speed Heading
2026-05-07 20:03 53.62594 9.98826 33 ft 0 kts 62°
2026-05-07 21:16 53.62599 9.98839 38 ft 4 kts 38°
2026-05-07 21:17 53.62637 9.98830 38 ft 0 kts 333°
2026-05-07 21:17 53.62646 9.98825 38 ft 6 kts 355°
2026-05-07 21:17 53.62680 9.98876 38 ft 10 kts 20°
2026-05-07 21:18 53.62719 9.98858 38 ft 7 kts 330°
2026-05-07 21:18 53.62772 9.98813 38 ft 7 kts 333°
2026-05-07 21:18 53.62818 9.98810 38 ft 6 kts 38°
2026-05-07 21:18 53.62835 9.98836 38 ft 4 kts 47°
2026-05-07 21:19 53.62852 9.98868 38 ft 9 kts 48°
2026-05-07 21:19 53.62925 9.99021 38 ft 14 kts 50°
2026-05-07 21:19 53.62969 9.99112 39 ft 8 kts 50°
2026-05-07 21:19 53.63010 9.99198 39 ft 11 kts 51°
2026-05-07 21:20 53.63032 9.99233 39 ft 4 kts 21°
2026-05-07 21:20 53.63070 9.99232 39 ft 1 kts 339°
2026-05-07 21:20 53.63078 9.99236 39 ft 1 kts 32°
2026-05-07 21:20 53.63125 9.99305 40 ft 18 kts 26°
2026-05-07 21:21 53.63270 9.99366 41 ft 11 kts 347°
2026-05-07 21:21 53.63306 9.99354 41 ft 9 kts 343°
2026-05-07 21:21 53.63540 9.99165 40 ft 63 kts 333°
2026-05-07 21:21 53.63966 9.98628 175 ft 79 kts 327°
2026-05-07 21:22 53.64477 9.98118 277 ft 95 kts 340°
2026-05-07 21:22 53.65089 9.97589 416 ft 102 kts 339°
2026-05-07 21:22 53.65816 9.97052 237 ft 127 kts 339°
2026-05-07 21:22 53.66565 9.96494 454 ft 116 kts 345°
2026-05-07 21:23 53.67259 9.95961 587 ft 124 kts 340°
2026-05-07 21:23 53.68073 9.95258 522 ft 134 kts 336°
2026-05-07 21:23 53.68807 9.94438 563 ft 133 kts 335°
2026-05-07 21:23 53.69710 9.94365 367 ft 124 kts 22°
2026-05-07 21:24 53.70474 9.94810 417 ft 116 kts 19°
2026-05-07 21:24 53.71247 9.95019 362 ft 124 kts
2026-05-07 21:24 53.72122 9.95143 309 ft 117 kts 17°
2026-05-07 21:24 53.72798 9.96041 1254 ft 75 kts 43°